Weather History for KM19 - October, 2012

Change the Weather History Date:

Tuesday, October 16, 2012

  Actual Average (KJBR) Record (KJBR)
Temperature  
Mean Temperature 64 °F 61 °F  
Max Temperature 77 °F 73 °F 90 °F (1917)
Min Temperature 52 °F 50 °F 33 °F (1943)
Degree Days  
Heating Degree Days 0 5  
Month to date heating degree days 60  
Since 1 July heating degree days 78  
Cooling Degree Days 0 1  
Month to date cooling degree days 38  
Year to date cooling degree days 1809  
Growing Degree Days 14 (Base 50)    
Moisture  
Dew Point 53 °F    
Average Humidity 75    
Maximum Humidity 100    
Minimum Humidity 39    
Precipitation  
Precipitation 0.00 in 0.13 in 2.74 in (2006)
Month to date precipitation 2.13  
Year to date precipitation 36.30  
Snow  
Snow 0.00 in 0.00 in 0.00 in (2002)
Month to date snowfall 0.0  
Since 1 July snowfall 0.0  
Since 1 September snowfall 0.0  
Snow Depth -    
Sea Level Pressure  
Sea Level Pressure 29.86 in    
Wind  
Wind Speed 10 mph (South)    
Max Wind Speed 20 mph    
Max Gust Speed 31 mph    
Visibility 10 miles    
Events      
T = Trace of Precipitation, MM = Missing Value Source: NWS Daily Summary

Daily Weather History Graph

Daily Weather History Graph

Search for Another Location

Airport or City:

Trip Planner

Search our weather history database for the weather conditions in past years. The results will help you decide how hot, cold, wet, or windy it might be!

Date:

Astronomy

Oct. 16, 2012 Rise Set
Actual Time 7:12 AM CDT 6:27 PM CDT
Civil Twilight 6:46 AM CDT 6:52 PM CDT
Nautical Twilight 6:17 AM CDT 7:22 PM CDT
Astronomical Twilight 5:47 AM CDT 7:52 PM CDT
Moon 8:31 AM CDT (10/16) 7:16 PM CDT (10/16)
Length of Visible Light 12h 06m
Length of Day
11h 14m
New Moon, 2% of the Moon is Illuminated
Oct 16
New Moon
Oct 21
First Quarter
Oct 29
Full
Nov 6
Last Quarter
Nov 13
New

Hourly Weather History & Observations

Time (CDT) Temp. Dew Point Humidity Pressure Visibility Wind Dir Wind Speed Gust Speed Precip Events Conditions
12:56 AM 55.9 °F 52.0 °F 87% 29.96 in 10.0 mi South 6.9 mph - N/A   Clear
1:56 AM 54.9 °F 52.0 °F 90% 29.96 in 10.0 mi South 9.2 mph - N/A   Clear
2:56 AM 54.0 °F 52.0 °F 93% 29.94 in 10.0 mi South 9.2 mph - N/A   Clear
3:56 AM 52.9 °F 52.0 °F 97% 29.92 in 10.0 mi South 6.9 mph - N/A   Clear
6:56 AM 52.0 °F 52.0 °F 100% 29.92 in 10.0 mi South 8.1 mph - N/A   Clear
7:56 AM 54.0 °F 52.9 °F 96% 29.93 in 10.0 mi SSE 5.8 mph - N/A   Clear
8:56 AM 56.8 °F 54.9 °F 93% 29.94 in 10.0 mi South 9.2 mph - N/A   Clear
9:56 AM 61.9 °F 55.9 °F 81% 29.94 in 10.0 mi South 10.4 mph - N/A   Clear
11:56 AM 72.0 °F 54.0 °F 53% 29.92 in 10.0 mi SSW 15.0 mph - N/A   Clear
12:56 PM 73.9 °F 52.9 °F 48% 29.89 in 10.0 mi SSW 15.0 mph - 0.00 in   Clear
1:56 PM 77.0 °F 52.0 °F 42% 29.85 in 10.0 mi SSW 16.1 mph - 0.00 in   Clear
2:56 PM 77.0 °F 50.0 °F 39% 29.84 in 10.0 mi SSW 18.4 mph 31.1 mph N/A   Clear
3:56 PM 75.9 °F 52.0 °F 43% 29.82 in 10.0 mi SSW 17.3 mph - N/A   Clear
4:56 PM 73.9 °F 52.0 °F 46% 29.79 in 10.0 mi South 19.6 mph - N/A   Clear
5:56 PM 70.0 °F 52.9 °F 55% 29.78 in 10.0 mi South 13.8 mph - N/A   Clear
6:56 PM 63.0 °F 54.0 °F 72% 29.78 in 10.0 mi South 10.4 mph - N/A   Clear
7:56 PM 59.0 °F 54.0 °F 83% 29.79 in 10.0 mi South 9.2 mph - N/A   Clear
8:56 PM 57.9 °F 52.9 °F 83% 29.80 in 10.0 mi South 6.9 mph - N/A   Clear
9:56 PM 56.8 °F 54.9 °F 93% 29.80 in 10.0 mi South 9.2 mph - N/A   Clear
10:56 PM 55.9 °F 54.9 °F 96% 29.79 in 10.0 mi South 9.2 mph - N/A   Clear
11:56 PM 57.9 °F 54.9 °F 90% 29.78 in 10.0 mi South 8.1 mph - N/A   Clear